Volver al catálogo

SL-16 DEB

ActivoLEO
NORAD 20629·DEBRIS·🇷🇺 Russia

Lanzado May 22, 1990 desde Baikonur Cosmodrome

Loading…

Próximos Pases (próximas 24 horas)

TLE

ActualizadoSource: Space-Track

Época: Sep 14, 2026, 05:06 UTC

1 20629U 90046F   26257.21299792  .00000095  00000-0  12789-3 0  9995
2 20629  71.0255 347.3664 0200336 297.4432  84.5700 13.74180758820018

Sigue SL-16 DEB en tiempo real con AllMySat

Download on the App Store